This demonstration page uses our WeatherBlox Daily Observations layout. Learn more.

Left ArrowRight Arrow

39.01783, -85.05884

Hourly Observations for April 13, 2019

Temp ( °F °C ) Dew Point ( °F °C ) Humidity (%) Winds ( mph kmh ) Pressure ( in mb ) Visibility ( mi km ) Precip ( " mm )
12:52 am 00:52 Partly Cloudy 52 11.1 35 1.7 53 53 S 5 7 30.04 1017 10 16 N/A
1:52 am 01:52 Mostly Cloudy 52 11.1 35 1.7 53 53 SSW 5 7 30.05 1018 10 16 N/A
2:52 am 02:52 Mostly Cloudy 53 11.7 34 1.1 48 48 N N/A 30.04 1017 10 16 N/A
3:52 am 03:52 Partly Cloudy 47 8.3 36 2.2 66 66 S 7 11 30.06 1018 10 16 N/A
4:52 am 04:52 Clear 43 6.1 38 3.3 82 82 SSW 3 6 30.06 1018 10 16 N/A
5:52 am 05:52 Mostly Cloudy 45 7.2 38 3.3 77 77 N N/A 30.06 1018 10 16 N/A
6:52 am 06:52 Mostly Cloudy 40 4.4 36 2.2 86 86 S 3 6 30.09 1019 10 16 N/A
7:52 am 07:52 Mostly Cloudy 46 7.8 37 2.8 71 71 N N/A 30.11 1020 10 16 N/A
8:52 am 08:52 Cloudy 50 10 42 5.6 74 74 WNW 3 6 30.12 1020 10 16 N/A
9:52 am 09:52 Cloudy 54 12.2 36 2.2 51 51 NNW 9 15 30.12 1020 10 16 N/A
10:52 am 10:52 Cloudy 56 13.3 35 1.7 46 46 N 7 11 30.13 1020 10 16 N/A
11:52 am 11:52 Cloudy 58 14.4 34 1.1 41 41 N 5 7 30.13 1020 10 16 N/A
12:52 pm 12:52 Mostly Cloudy 60 15.6 34 1.1 38 38 N N/A 30.11 1020 10 16 N/A
1:52 pm 13:52 Cloudy 61 16.1 35 1.7 38 38 N N/A 30.09 1019 10 16 N/A
2:52 pm 14:52 Cloudy 66 18.9 36 2.2 33 33 NNW 3 6 30.06 1018 10 16 N/A
3:52 pm 15:52 Mostly Cloudy 67 19.4 37 2.8 33 33 NNW 8 13 30.05 1018 10 16 N/A
4:52 pm 16:52 Cloudy 66 18.9 36 2.2 33 33 N 3 6 30.02 1017 10 16 N/A
5:52 pm 17:52 Mostly Cloudy 66 18.9 34 1.1 30 30 VRB 3 6 29.99 1016 8 13 N/A
6:52 pm 18:52 Cloudy 65 18.3 35 1.7 33 33 N 5 7 29.96 1015 10 16 N/A
7:52 pm 19:52 Cloudy 64 17.8 35 1.7 34 34 ENE 8 13 29.95 1014 10 16 N/A
8:52 pm 20:52 Cloudy 63 17.2 36 2.2 37 37 NE 8 13 29.94 1014 10 16 N/A
9:52 pm 21:52 Cloudy 63 17.2 35 1.7 35 35 NNE 7 11 29.94 1014 10 16 N/A
10:52 pm 22:52 Cloudy 62 16.7 37 2.8 40 40 NNE 9 15 29.93 1014 10 16 N/A
11:52 pm 23:52 Cloudy with Light Rain 57 13.9 44 6.7 62 62 N 12 19 29.93 1013 8 13 N/A

Powered by AerisWeather